User: anonymous   Login
Location: Unspecified
(0.0000°N, 0.0000°E)
Time: 00:03:45
(UTC+00:00)
Language:

STARLINK-35296 - Orbit

View from above orbital plane
View from above orbital plane
View from above satellite
View from above satellite

Ground track
Ground track

The orbit is defined by the following mean orbital elements,

1 65801U          26145.11894161 +.00000000 +00000-0 +49513-3 0 00007
2 65801  97.4506   7.9637 0001703  94.4743 265.6679 15.05660292    04
Epoch (UTC): 25 May 2026 02:51:16
Eccentricity: 0.0001703
inclination: 97.4506°
perigee height: 548 km
apogee height: 551 km
right ascension of ascending node: 7.9637°
argument of perigee: 94.4743°
revolutions per day: 15.05660292
mean anomaly at epoch: 265.6679°

The dashed part of the orbit path shows where the satellite is in the earth's shadow,  

DLR